Location: Pl�tzky
(52.0521°N, 11.8020°E)
Time: 23:45:24
(UTC+00:00)

Daily predictions for brighter satellites

Satellite Brightness Start Highest point End
(mag) Time Altitude Azimuth Time Altitude Azimuth Time Altitude Azimuth
Cosmos 1656 3.8 15:42:14 10° SSW 15:47:39 59° ESE 15:53:02 10° NE
Cosmos 2369 4.3 15:43:51 10° S 15:49:06 41° ESE 15:54:25 10° NE
Cosmos 2082 3.9 15:44:10 10° NNW 15:49:49 82° WSW 15:55:27 10° SSE
Cosmos 1842 Rocket 4.3 15:49:06 10° SSW 15:53:31 59° WNW 15:57:56 10° N
Feng Yun 1-1 Rocket 4.3 15:50:14 10° SE 15:55:35 55° ENE 16:00:51 10° N
Meteor 2-2 Rocket 4.3 15:50:02 10° S 15:55:47 71° E 16:01:27 10° NNE
H-2A R/B 4.2 15:52:33 10° N 15:55:50 22° WNW 15:59:03 10° WSW
Cosmos 1371 Rocket 4.1 15:52:22 10° NNW 15:57:28 51° ENE 16:02:30 10° SE
Cosmos 2344 3.9 15:50:13 10° WSW 15:57:43 70° NW 16:06:34 10° NE
Meteor 2-10 Rocket 4.5 15:53:15 10° SW 15:58:08 49° WNW 16:03:12 10° N
CZ-4B R/B 3.7 15:55:54 10° S 16:01:10 66° WSW 16:06:28 10° NNW
Cosmos 1869 3.2 15:59:26 10° S 16:03:19 69° E 16:07:15 10° NNE
ALOS 3.2 15:59:11 10° S 16:03:45 55° W 16:08:22 10° NNW
Cosmos 2278 4.2 16:00:38 10° S 16:05:54 41° ESE 16:11:14 10° NE
Cosmos 1805 Rocket 3.8 16:01:32 10° NNW 16:05:55 78° W 16:10:19 10° S
SMAP 3.1 16:01:57 10° SSE 16:06:31 57° ENE 16:11:06 10° N
Cosmos 1844 Rocket 4.2 16:03:17 10° NNW 16:06:54 17° NNE 16:10:16 11° ENE
CZ-4B R/B 2.7 16:03:51 10° N 16:07:07 42° WNW 16:10:25 10° SW
Cosmos 2112 Rocket 4.5 16:10:01 10° S 16:14:51 41° ESE 16:19:45 10° NE
Meteor 2-20 Rocket 4.5 16:10:04 10° S 16:16:08 67° E 16:22:15 10° NNE
Cosmos 2278 Rocket 4.2 16:16:39 10° N 16:18:46 12° N 16:20:54 10° NNE
Cosmos 1633 2.5 16:15:16 10° N 16:18:57 90° WSW 16:22:34 10° S
Cosmos 1680 Rocket 3.7 16:14:31 10° S 16:19:33 51° ESE 16:24:39 10° NNE
ASTEX 1 4.0 16:16:58 10° N 16:21:55 62° W 16:26:49 10° SSW
Cosmos 2227 4.3 16:18:35 10° NNW 16:24:20 61° NE 16:30:01 10° SE
USA 215 3.5 16:20:06 12° ENE 16:26:02 59° N 16:32:25 10° W
ERBS 2.4 16:22:53 10° WSW 16:26:11 65° NNW 16:28:35 18° NE
Cosmos 1151 Rocket 3.6 16:23:41 10° SSE 16:27:43 37° E 16:31:48 10° NNE
NOSS 3-2 (C) 4.4 16:23:03 10° NW 16:29:36 42° NNE 16:35:56 14° E
Cosmos 1633 Rocket 3.0 16:25:40 10° N 16:30:07 84° ENE 16:34:33 10° SSE
Sich 1 3.7 16:26:34 10° NNW 16:30:54 61° W 16:35:13 10° S
Cosmos 1689 Rocket 4.0 16:30:20 10° N 16:33:05 30° WNW 16:35:49 10° SW
CORIOLIS 4.1 16:28:21 10° SSE 16:33:46 83° ENE 16:39:15 10° NNW
NOAA 12 4.1 16:28:32 10° SSE 16:33:48 65° ENE 16:39:05 10° N
Cosmos 2034 Rocket 4.0 16:27:25 10° N 16:33:49 72° ENE 16:40:11 10° SSE
CSL-04 Rocket 4.2 16:31:29 10° SE 16:36:14 34° ENE 16:40:59 10° N
NOSS 2-3 (E) 3.8 16:32:53 10° SSW 16:37:20 69° SE 16:41:33 16° NE
SeaSat 1 2.6 16:35:23 10° SE 16:40:10 52° NE 16:44:57 10° NNW
USA 229 DEB 4.0 16:34:33 10° WSW 16:41:11 67° NW 16:47:26 13° NE
USA 229 3.9 16:34:39 10° WSW 16:41:16 67° NW 16:47:32 13° NE
COSMOS 2455 4.5 16:38:38 10° SE 16:41:22 14° ESE 16:41:22 14° ESE
Okean-O 2.5 16:37:50 10° SSE 16:42:15 74° ENE 16:46:43 10° NNW
Cosmos 1606 3.7 16:39:35 10° SE 16:42:38 24° E 16:43:08 23° ENE
NOSS 3-1 (C) 3.7 16:36:58 10° WSW 16:42:41 67° NW 16:48:38 14° NE
Cosmos 2369 Rocket 4.4 16:41:36 10° NW 16:44:03 13° NNW 16:46:30 10° N
NOSS 3-1 (A) 3.5 16:40:32 10° SW 16:46:16 84° NW 16:51:55 15° NE
Cosmos 1328 Rocket 3.5 16:42:20 10° S 16:46:41 61° E 16:51:00 10° NNE
Cosmos 1624 Rocket 4.2 16:41:38 10° NNW 16:47:01 81° WSW 16:52:20 10° SSE
Cosmos 923 Rocket 4.1 16:41:55 10° SSW 16:47:09 82° WNW 16:52:23 10° NNE
NOSS 2-3 (D) 3.8 16:42:41 10° SW 16:47:09 75° SE 16:51:00 19° NE
Cosmos 1666 Rocket 4.3 16:43:45 10° NNW 16:48:02 55° W 16:52:16 10° S
Cosmos 1634 Rocket 4.2 16:42:11 10° N 16:48:05 44° ENE 16:53:57 10° SE
Cosmos 1943 Rocket 4.4 16:45:53 10° NW 16:48:10 12° NNW 16:50:26 10° N
Cosmos 2056 Rocket 3.6 16:43:33 10° NNW 16:48:42 80° WSW 16:53:54 10° SSE
Cosmos 1933 Rocket 3.5 16:44:46 10° N 16:49:05 57° ENE 16:53:22 10° SSE
Cosmos 1980 Rocket 2.2 16:48:51 10° SSW 16:54:27 64° ESE 16:59:08 15° NE
COSMO-SKYMED 1 3.2 16:51:58 19° NE 16:54:32 35° E 16:58:31 10° SSE
Cosmos 1515 Rocket 3.7 16:50:31 10° SSE 16:54:42 47° E 16:58:42 11° NNE
Meteor 1-20 Rocket 4.4 16:51:53 10° N 16:57:38 54° ENE 17:03:17 10° SSE
Okean O Rocket 4.5 16:54:37 10° SW 16:57:52 20° W 17:01:07 10° NW
SL-16 R/B 3.2 16:53:31 10° SSE 16:58:02 25° ESE 16:59:00 24° E
Cosmos 2228 Rocket 3.6 16:55:19 10° SSE 16:59:26 36° E 17:01:50 21° NE
CENTAUR R/B 3.4 16:52:56 10° NW 17:00:05 46° NNE 17:05:05 23° E
COBE Rocket 3.7 16:55:42 10° NNE 17:00:29 79° ESE 17:05:09 10° S
Cosmos 2279 Rocket 4.4 16:56:48 10° N 17:02:33 37° ENE 17:08:17 10° SE
Cosmos 2322 Rocket 3.2 16:58:46 10° SSE 17:03:07 24° ESE 17:03:15 24° E
Cosmos 1939 Rocket 3.9 17:05:08 28° NE 17:05:08 28° NE 17:07:58 10° N
CZ-4 R/B 1.3 17:00:44 10° SSE 17:04:44 58° ENE 17:08:41 10° N
Meteor 1-25 Rocket 4.2 17:00:01 10° N 17:05:40 61° ENE 17:11:22 10° SSE
Tsikada Rocket 4.0 17:02:36 10° S 17:08:56 68° E 17:15:20 10° NNE
H-2A R/B 3.9 17:11:59 15° NNE 17:11:59 15° NNE 17:13:27 10° NNE
YAOGAN 6 2.3 17:07:22 10° SSE 17:10:50 74° ENE 17:14:20 10° N
Cosmos 2263 Rocket 2.1 17:05:31 10° NNW 17:11:07 90° NW 17:16:43 10° SSE
Cosmos 44 3.2 17:07:55 10° NW 17:12:12 49° NE 17:13:18 39° E
Envisat 3.1 17:07:50 10° S 17:12:55 77° WSW 17:18:02 10° NNW
Cosmos 1933 3.3 17:09:23 10° S 17:13:23 61° E 17:15:36 25° NNE
Cosmos 158 Rocket 3.9 17:10:43 10° SSW 17:15:57 81° ESE 17:19:38 20° NNE
BREEZE-M DEB (TANK) 3.6 17:15:18 10° SW 17:19:24 25° S 17:20:08 23° SSE
Cosmos 1470 Rocket 4.2 17:15:14 10° NNW 17:19:39 57° W 17:24:02 10° S
YAOGAN 1 2.4 17:15:25 10° SSE 17:19:42 66° ENE 17:24:01 10° N
Lacrosse 4 Rocket 2.8 17:18:45 10° WSW 17:22:24 31° NW 17:24:45 18° N
NOSS 2-3 (C) 4.2 17:20:24 10° WSW 17:24:57 65° NW 17:27:46 28° NE
ATLAS 3B R/B 3.1 17:18:49 10° NW 17:25:08 42° NNE 17:27:20 33° ENE
Cosmos 1420 Rocket 4.0 17:21:31 10° NNW 17:26:44 80° WSW 17:31:54 10° SSE
ATLAS 2AS CENTAUR R/B 4.4 17:24:01 10° SSE 17:27:27 19° SE 17:27:27 19° SE
Cosmos 1697 Rocket 3.5 17:25:35 10° SW 17:31:03 49° NW 17:35:34 15° NNE
USA 238 DEB 3.7 17:24:15 10° NW 17:31:25 79° NE 17:36:05 25° SE
USA 238 3.7 17:24:22 10° NW 17:31:31 78° NE 17:36:08 25° SE
ISS -1.1 17:29:28 10° S 17:29:54 12° S 17:29:54 12° S
NOSS 3-2 (A) 3.9 17:26:17 10° NW 17:33:32 76° NE 17:38:34 26° ESE
Geosat 4.0 17:32:46 43° ENE 17:34:13 60° ESE 17:39:11 10° SSW
APEX 3.6 17:31:22 10° SW 17:34:18 41° NW 17:34:18 41° NW
Cosmos 1452 Rocket 3.5 17:31:40 10° NNW 17:37:00 82° WSW 17:42:17 10° SSE
Cosmos 1869 Rocket 3.4 17:36:34 10° N 17:40:55 72° ENE 17:41:24 64° SE
Cosmos 371 Rocket 4.0 17:37:32 10° NNW 17:41:09 37° NNE 17:41:09 37° NNE
SKYMED 2 3.5 17:40:40 29° NNE 17:42:51 84° WNW 17:47:12 10° SSW
Cosmos 1400 Rocket 3.5 17:41:55 10° S 17:44:48 43° S 17:44:48 43° S
GENESIS II 4.2 17:44:02 10° SW 17:48:02 85° W 17:48:02 85° W
Meteor 1-14 Rocket 4.3 17:42:56 10° NNW 17:48:59 89° ENE 17:54:58 10° S
Cosmos 1844 Rocket 2.8 17:46:42 10° NNW 17:51:57 51° NE 17:51:57 51° NE
Ariane Rocket 2.8 17:55:50 69° ENE 17:55:51 69° ENE 18:00:55 10° NNW
IRS-1A Rocket 4.2 17:57:46 54° SE 17:58:55 69° ENE 18:04:44 10° NNW
ERBS 4.4 17:59:51 10° WNW 18:01:35 24° NW 18:01:35 24° NW
Cosmos 2278 Rocket 3.7 18:00:24 10° NNW 18:03:29 22° NNE 18:03:29 22° NNE
USA 215 3.2 18:07:27 57° ENE 18:08:44 71° NNE 18:15:15 10° WNW
Cosmos 44 Rocket 4.4 18:06:14 10° NW 18:09:10 32° N 18:09:10 32° N
NOAA 11 4.4 18:06:08 10° S 18:11:32 68° WSW 18:17:00 10° NNW
GEOS 3 Rocket 3.5 18:17:44 85° SW 18:17:44 85° SW 18:22:51 10° SW
SeaSat 1 4.1 18:13:27 10° S 18:17:52 32° WSW 18:22:18 10° NW
Cosmos 1606 4.3 18:14:48 10° SW 18:18:12 33° WNW 18:18:12 33° WNW
NOSS 3-2 (C) 3.9 18:14:06 10° NW 18:21:26 88° NE 18:23:25 56° SE
COSMOS 2455 3.4 18:20:21 10° SSW 18:24:34 45° S 18:24:34 45° S
BREEZE-M DEB (TANK) 4.3 18:25:11 10° W 18:27:54 26° WSW 18:27:54 26° WSW
COSMO-SKYMED 1 4.2 18:29:12 25° NNW 18:30:40 32° WNW 18:34:31 10° SW
Cosmos 2369 Rocket 4.5 18:28:49 10° N 18:30:04 12° N 18:30:04 12° N
Cosmos 2360 Rocket 4.2 18:27:05 10° S 18:28:08 16° S 18:28:08 16° S
Cosmos 1844 4.2 18:26:57 10° NNW 18:31:19 52° NNW 18:31:19 52° NNW
Cosmos 1943 Rocket 4.5 18:32:10 10° N 18:33:36 12° N 18:33:36 12° N
Cosmos 1980 Rocket 3.7 18:33:49 10° WSW 18:38:53 32° NW 18:40:55 26° N
CZ-4 R/B 4.2 18:37:23 10° SW 18:40:06 17° W 18:42:49 10° NW
SL-16 R/B 2.6 18:36:01 10° SW 18:40:54 61° WSW 18:40:54 61° WSW
Cosmos 2322 Rocket 2.9 18:41:02 10° SW 18:45:07 48° SW 18:45:07 48° SW
H-2A R/B 4.1 18:52:37 19° NNW 18:52:37 19° NNW 18:54:05 10° NNW
CENTAUR R/B 3.0 18:43:46 10° NW 18:51:38 85° SW 18:52:17 78° SSE
ATLAS 3B R/B 3.2 19:09:39 10° NW 19:14:36 52° WNW 19:14:36 52° WNW
ATLAS 2AS CENTAUR R/B 4.2 19:11:19 10° SSW 19:14:57 30° SSW 19:14:57 30° SSW
